Wetterdaten: Woche 20.12.21 - 26.12.21 (KW51)
Datum Zeit Temp. Aussen Temp. o. S. Temp +5cm Feuchte Auss Luftdruck Regen Sonnenschein Regendauer Solar Windben Empfang
20.12.2021 00:00 5,7 C 5,3 C 5,0 C 99 % 1027,7 hPa 0,0 l/m 0,00 h 0,00 h 0 W/m 6,8 km/h (2 Bft) 97,06 %
20.12.2021 01:00 5,6 C 5,0 C 5,0 C 99 % 1027,4 hPa 0,0 l/m 0,00 h 0,00 h 0 W/m 5,0 km/h (1 Bft) 99,22 %
20.12.2021 02:00 5,4 C 5,0 C 5,0 C 99 % 1027,3 hPa 0,0 l/m 0,00 h 0,00 h 0 W/m 3,1 km/h (1 Bft) 96,65 %
20.12.2021 03:00 5,3 C 5,0 C 5,0 C 99 % 1027,2 hPa 0,0 l/m 0,00 h 0,00 h 0 W/m 6,7 km/h (2 Bft) 97,51 %
20.12.2021 04:00 5,2 C 4,9 C 4,5 C 99 % 1027,2 hPa 0,0 l/m 0,00 h 0,00 h 0 W/m 4,7 km/h (1 Bft) 96,80 %
20.12.2021 05:00 4,9 C 4,7 C 4,4 C 99 % 1027,2 hPa 0,0 l/m 0,00 h 0,00 h 0 W/m 6,1 km/h (2 Bft) 97,79 %
20.12.2021 06:00 4,9 C 4,4 C 4,2 C 98 % 1027,2 hPa 0,0 l/m 0,00 h 0,00 h 0 W/m 3,4 km/h (1 Bft) 97,22 %
20.12.2021 07:00 4,8 C 4,4 C 3,9 C 96 % 1027,5 hPa 0,0 l/m 0,00 h 0,00 h 0 W/m 3,6 km/h (1 Bft) 95,80 %
20.12.2021 08:00 4,9 C 4,0 C 3,5 C 94 % 1027,8 hPa 0,0 l/m 0,00 h 0,00 h 9 W/m 3,0 km/h (1 Bft) 99,57 %
20.12.2021 09:00 4,2 C 3,0 C 2,3 C 93 % 1028,1 hPa 0,0 l/m 0,00 h 0,00 h 31 W/m 0,0 km/h (0 Bft) 95,37 %
20.12.2021 10:00 4,1 C 4,1 C 2,8 C 94 % 1028,5 hPa 0,2 l/m 0,53 h 0,00 h 129 W/m 0,0 km/h (0 Bft) 97,44 %
20.12.2021 11:00 4,9 C 5,0 C 3,3 C 94 % 1028,7 hPa 0,0 l/m 0,53 h 0,00 h 133 W/m 0,0 km/h (0 Bft) 96,29 %
20.12.2021 12:00 6,0 C 7,0 C 4,0 C 90 % 1028,5 hPa 0,0 l/m 0,63 h 0,00 h 187 W/m 4,4 km/h (1 Bft) 97,43 %
20.12.2021 13:00 6,9 C 8,0 C 4,1 C 82 % 1028,3 hPa 0,0 l/m 0,77 h 0,00 h 195 W/m 6,3 km/h (2 Bft) 98,93 %
20.12.2021 14:00 6,7 C 6,2 C 3,7 C 74 % 1028,1 hPa 0,0 l/m 1,00 h 0,00 h 156 W/m 6,0 km/h (2 Bft) 98,36 %
20.12.2021 15:00 5,7 C 4,3 C 2,5 C 74 % 1028,1 hPa 0,0 l/m 0,17 h 0,00 h 35 W/m 5,2 km/h (1 Bft) 97,31 %
20.12.2021 16:00 4,2 C 2,6 C 1,1 C 78 % 1028,0 hPa 0,0 l/m 0,00 h 0,00 h 9 W/m 2,9 km/h (1 Bft) 96,76 %
20.12.2021 17:00 2,9 C 1,2 C -0,4 C 80 % 1028,0 hPa 0,0 l/m 0,00 h 0,00 h 0 W/m 1,2 km/h (1 Bft) 98,84 %
20.12.2021 18:00 1,8 C 0,2 C -1,1 C 83 % 1028,2 hPa 0,0 l/m 0,00 h 0,00 h 0 W/m 0,3 km/h (0 Bft) 96,99 %
20.12.2021 19:00 1,0 C -0,3 C -1,9 C 84 % 1028,4 hPa 0,0 l/m 0,00 h 0,00 h 0 W/m 0,2 km/h (0 Bft) 96,63 %
20.12.2021 20:00 0,3 C -1,2 C -2,4 C 85 % 1028,4 hPa 0,0 l/m 0,00 h 0,00 h 0 W/m 0,2 km/h (0 Bft) 97,92 %
20.12.2021 21:00 -0,3 C -1,4 C -2,7 C 88 % 1028,3 hPa 0,0 l/m 0,00 h 0,00 h 0 W/m 1,3 km/h (1 Bft) 97,57 %
20.12.2021 22:00 -0,8 C -2,0 C -2,9 C 89 % 1028,3 hPa 0,0 l/m 0,00 h 0,00 h 0 W/m 0,7 km/h (0 Bft) 95,25 %
20.12.2021 23:00 -1,3 C -2,5 C -3,6 C 90 % 1028,2 hPa 0,0 l/m 0,00 h 0,00 h 0 W/m 0,2 km/h (0 Bft) 96,79 %
21.12.2021 00:00 -2,1 C -3,2 C -3,9 C 90 % 1028,1 hPa 0,0 l/m 0,00 h 0,00 h 0 W/m 0,1 km/h (0 Bft) 96,58 %
21.12.2021 01:00 -2,4 C -3,4 C -4,2 C 91 % 1027,8 hPa 0,0 l/m 0,00 h 0,00 h 0 W/m 0,1 km/h (0 Bft) 98,16 %
21.12.2021 02:00 -3,2 C -3,9 C -4,4 C 91 % 1027,6 hPa 0,0 l/m 0,00 h 0,00 h 0 W/m 0,0 km/h (0 Bft) 98,14 %
21.12.2021 03:00 -3,8 C -4,3 C -5,0 C 92 % 1027,4 hPa 0,0 l/m 0,00 h 0,00 h 0 W/m 0,0 km/h (0 Bft) 98,47 %
21.12.2021 04:00 -3,9 C -4,4 C -5,0 C 93 % 1027,3 hPa 0,0 l/m 0,00 h 0,00 h 0 W/m 0,1 km/h (0 Bft) 95,56 %
21.12.2021 05:00 -4,3 C -4,7 C -5,1 C 93 % 1027,0 hPa 0,0 l/m 0,00 h 0,00 h 0 W/m 0,0 km/h (0 Bft) 97,50 %
21.12.2021 06:00 -4,7 C -5,0 C -5,6 C 93 % 1027,0 hPa 0,0 l/m 0,00 h 0,00 h 0 W/m 0,0 km/h (0 Bft) 98,01 %
21.12.2021 07:00 -4,8 C -5,0 C -5,6 C 94 % 1027,2 hPa 0,0 l/m 0,00 h 0,00 h 0 W/m 0,0 km/h (0 Bft) 97,38 %
21.12.2021 08:00 -4,5 C -4,9 C -5,2 C 94 % 1027,2 hPa 0,0 l/m 0,00 h 0,00 h 6 W/m 0,0 km/h (0 Bft) 97,86 %
21.12.2021 09:00 -4,5 C -4,5 C -5,0 C 94 % 1027,4 hPa 0,0 l/m 0,00 h 0,00 h 15 W/m 0,1 km/h (0 Bft) 94,69 %
21.12.2021 10:00 -3,6 C -3,3 C -4,1 C 95 % 1027,5 hPa 0,0 l/m 0,43 h 0,00 h 97 W/m 1,4 km/h (1 Bft) 98,29 %
21.12.2021 11:00 -1,4 C -1,3 C -2,6 C 97 % 1027,3 hPa 0,0 l/m 0,50 h 0,00 h 139 W/m 3,2 km/h (1 Bft) 97,30 %
21.12.2021 12:00 0,5 C 1,6 C -1,4 C 96 % 1026,8 hPa 0,0 l/m 0,63 h 0,00 h 189 W/m 5,3 km/h (1 Bft) 95,36 %
21.12.2021 13:00 2,8 C 3,8 C -0,7 C 87 % 1026,3 hPa 0,0 l/m 1,00 h 0,00 h 262 W/m 5,2 km/h (1 Bft) 98,00 %
21.12.2021 14:00 3,3 C 1,8 C -1,1 C 81 % 1026,1 hPa 0,0 l/m 1,00 h 0,00 h 162 W/m 2,0 km/h (1 Bft) 98,86 %
21.12.2021 15:00 2,7 C 0,5 C -1,7 C 81 % 1026,0 hPa 0,0 l/m 0,17 h 0,00 h 35 W/m 1,5 km/h (1 Bft) 97,32 %
21.12.2021 16:00 1,2 C -1,4 C -2,7 C 82 % 1026,2 hPa 0,0 l/m 0,00 h 0,00 h 9 W/m 0,0 km/h (0 Bft) 97,79 %
21.12.2021 17:00 -0,5 C -2,7 C -3,5 C 84 % 1026,3 hPa 0,0 l/m 0,00 h 0,00 h 0 W/m 0,0 km/h (0 Bft) 98,15 %
21.12.2021 18:00 -1,6 C -3,2 C -3,9 C 88 % 1026,3 hPa 0,0 l/m 0,00 h 0,00 h 0 W/m 0,8 km/h (0 Bft) 97,43 %
21.12.2021 19:00 -1,9 C -3,3 C -3,9 C 91 % 1026,6 hPa 0,0 l/m 0,00 h 0,00 h 0 W/m 0,1 km/h (0 Bft) 95,50 %
21.12.2021 20:00 -2,5 C -3,7 C -4,1 C 92 % 1026,7 hPa 0,0 l/m 0,00 h 0,00 h 0 W/m 0,1 km/h (0 Bft) 98,43 %
21.12.2021 21:00 -2,9 C -3,9 C -4,4 C 93 % 1026,8 hPa 0,0 l/m 0,00 h 0,00 h 0 W/m 0,4 km/h (0 Bft) 97,20 %
21.12.2021 22:00 -3,1 C -4,3 C -4,5 C 93 % 1026,8 hPa 0,0 l/m 0,00 h 0,00 h 0 W/m 0,0 km/h (0 Bft) 96,16 %
21.12.2021 23:00 -3,8 C -4,4 C -5,0 C 93 % 1026,9 hPa 0,0 l/m 0,00 h 0,00 h 0 W/m 0,3 km/h (0 Bft) 95,74 %
22.12.2021 00:00 -3,6 C -4,0 C -4,5 C 94 % 1026,8 hPa 0,0 l/m 0,00 h 0,00 h 0 W/m 2,4 km/h (1 Bft) 97,86 %
22.12.2021 01:00 -2,6 C -3,1 C -3,5 C 95 % 1026,7 hPa 0,0 l/m 0,00 h 0,00 h 0 W/m 7,3 km/h (2 Bft) 95,95 %
22.12.2021 02:00 -2,1 C -2,8 C -3,1 C 95 % 1026,7 hPa 0,0 l/m 0,00 h 0,00 h 0 W/m 9,5 km/h (2 Bft) 95,12 %
22.12.2021 03:00 -2,2 C -2,8 C -3,3 C 94 % 1026,7 hPa 0,0 l/m 0,00 h 0,00 h 0 W/m 10,0 km/h (2 Bft) 98,35 %
22.12.2021 04:00 -2,3 C -3,2 C -3,3 C 94 % 1026,5 hPa 0,0 l/m 0,00 h 0,00 h 0 W/m 6,2 km/h (2 Bft) 98,39 %
22.12.2021 05:00 -2,6 C -3,3 C -3,8 C 94 % 1026,7 hPa 0,0 l/m 0,00 h 0,00 h 0 W/m 1,5 km/h (1 Bft) 95,73 %
22.12.2021 06:00 -2,7 C -3,3 C -3,7 C 94 % 1026,4 hPa 0,0 l/m 0,00 h 0,00 h 0 W/m 10,0 km/h (2 Bft) 98,65 %
22.12.2021 07:00 -2,6 C -3,3 C -3,3 C 94 % 1026,2 hPa 0,0 l/m 0,00 h 0,00 h 0 W/m 12,7 km/h (3 Bft) 95,14 %
22.12.2021 08:00 -2,4 C -2,9 C -3,3 C 94 % 1026,1 hPa 0,0 l/m 0,00 h 0,00 h 8 W/m 15,2 km/h (3 Bft) 96,88 %
22.12.2021 09:00 -2,0 C -2,2 C -2,9 C 93 % 1026,1 hPa 0,0 l/m 0,00 h 0,00 h 28 W/m 14,2 km/h (3 Bft) 97,72 %
22.12.2021 10:00 -1,2 C -1,2 C -2,1 C 92 % 1026,0 hPa 0,0 l/m 0,47 h 0,00 h 109 W/m 17,7 km/h (3 Bft) 96,61 %
22.12.2021 11:00 -0,3 C -0,1 C -1,4 C 90 % 1025,7 hPa 0,0 l/m 0,57 h 0,00 h 143 W/m 18,1 km/h (3 Bft) 98,16 %
22.12.2021 12:00 0,4 C 1,0 C -1,0 C 87 % 1025,1 hPa 0,0 l/m 0,43 h 0,00 h 152 W/m 18,0 km/h (3 Bft) 97,82 %
22.12.2021 13:00 1,5 C 2,8 C -0,6 C 84 % 1024,5 hPa 0,0 l/m 1,00 h 0,00 h 232 W/m 13,7 km/h (3 Bft) 96,23 %
22.12.2021 14:00 2,1 C 1,9 C -0,6 C 82 % 1024,1 hPa 0,0 l/m 0,50 h 0,00 h 123 W/m 9,4 km/h (2 Bft) 97,94 %
22.12.2021 15:00 1,5 C 0,7 C -1,2 C 83 % 1023,4 hPa 0,0 l/m 0,00 h 0,00 h 40 W/m 7,1 km/h (2 Bft) 96,27 %
22.12.2021 16:00 0,7 C -0,3 C -1,9 C 85 % 1022,7 hPa 0,0 l/m 0,00 h 0,00 h 12 W/m 9,1 km/h (2 Bft) 97,73 %
22.12.2021 17:00 0,1 C -0,8 C -2,2 C 86 % 1022,3 hPa 0,0 l/m 0,00 h 0,00 h 0 W/m 10,1 km/h (2 Bft) 98,08 %
22.12.2021 18:00 0,0 C -0,9 C -2,2 C 86 % 1021,7 hPa 0,0 l/m 0,00 h 0,00 h 0 W/m 12,7 km/h (3 Bft) 95,35 %
22.12.2021 19:00 -0,1 C -0,7 C -2,2 C 86 % 1021,2 hPa 0,0 l/m 0,00 h 0,00 h 0 W/m 19,4 km/h (3 Bft) 97,44 %
22.12.2021 20:00 -0,0 C -0,8 C -2,5 C 85 % 1020,7 hPa 0,0 l/m 0,00 h 0,00 h 0 W/m 17,8 km/h (3 Bft) 97,10 %
22.12.2021 21:00 -0,3 C -1,1 C -2,8 C 86 % 1020,1 hPa 0,0 l/m 0,00 h 0,00 h 0 W/m 16,1 km/h (3 Bft) 95,46 %
22.12.2021 22:00 -0,4 C -1,1 C -2,8 C 86 % 1019,7 hPa 0,0 l/m 0,00 h 0,00 h 0 W/m 15,7 km/h (3 Bft) 96,52 %
22.12.2021 23:00 -0,6 C -1,4 C -3,1 C 86 % 1019,0 hPa 0,0 l/m 0,00 h 0,00 h 0 W/m 14,0 km/h (3 Bft) 98,92 %
23.12.2021 00:00 -0,9 C -1,7 C -3,3 C 87 % 1018,3 hPa 0,0 l/m 0,00 h 0,00 h 0 W/m 13,6 km/h (3 Bft) 95,47 %
23.12.2021 01:00 -0,8 C -1,3 C -3,3 C 87 % 1017,4 hPa 0,0 l/m 0,00 h 0,00 h 0 W/m 16,3 km/h (3 Bft) 98,36 %
23.12.2021 02:00 -0,8 C -1,6 C -3,3 C 87 % 1016,6 hPa 0,0 l/m 0,00 h 0,00 h 0 W/m 14,7 km/h (3 Bft) 95,02 %
23.12.2021 03:00 -0,8 C -1,4 C -3,3 C 87 % 1016,0 hPa 0,0 l/m 0,00 h 0,00 h 0 W/m 16,4 km/h (3 Bft) 95,70 %
23.12.2021 04:00 -0,8 C -1,5 C -3,3 C 87 % 1015,5 hPa 0,0 l/m 0,00 h 0,00 h 0 W/m 17,1 km/h (3 Bft) 98,08 %
23.12.2021 05:00 -1,0 C -1,7 C -3,9 C 88 % 1014,9 hPa 0,0 l/m 0,00 h 0,00 h 0 W/m 15,6 km/h (3 Bft) 97,01 %
23.12.2021 06:00 -1,2 C -1,7 C -3,9 C 89 % 1014,1 hPa 0,0 l/m 0,00 h 0,00 h 0 W/m 15,2 km/h (3 Bft) 98,40 %
23.12.2021 07:00 -0,9 C -1,3 C -3,3 C 90 % 1013,5 hPa 0,0 l/m 0,00 h 0,00 h 0 W/m 15,9 km/h (3 Bft) 94,79 %
23.12.2021 08:00 -0,7 C -1,1 C -3,2 C 90 % 1013,3 hPa 0,0 l/m 0,00 h 0,00 h 5 W/m 15,1 km/h (3 Bft) 99,50 %
23.12.2021 09:00 -0,4 C -0,8 C -2,8 C 90 % 1013,0 hPa 0,0 l/m 0,00 h 0,00 h 14 W/m 16,0 km/h (3 Bft) 95,83 %
23.12.2021 10:00 0,2 C 0,1 C -2,1 C 90 % 1012,7 hPa 0,0 l/m 0,00 h 0,00 h 66 W/m 13,0 km/h (3 Bft) 98,22 %
23.12.2021 11:00 1,0 C 1,1 C -1,3 C 87 % 1011,9 hPa 0,0 l/m 0,00 h 0,00 h 106 W/m 15,2 km/h (3 Bft) 97,84 %
23.12.2021 12:00 1,7 C 1,7 C -0,9 C 85 % 1011,0 hPa 0,0 l/m 0,00 h 0,00 h 85 W/m 13,9 km/h (3 Bft) 95,20 %
23.12.2021 13:00 2,2 C 2,2 C -0,5 C 84 % 1010,1 hPa 0,0 l/m 0,00 h 0,00 h 87 W/m 14,4 km/h (3 Bft) 98,11 %
23.12.2021 14:00 3,0 C 2,8 C -0,1 C 83 % 1009,0 hPa 0,0 l/m 0,00 h 0,00 h 51 W/m 12,0 km/h (2 Bft) 99,25 %
23.12.2021 15:00 3,2 C 2,8 C -0,1 C 85 % 1008,4 hPa 0,0 l/m 0,00 h 0,00 h 32 W/m 10,0 km/h (2 Bft) 95,53 %
23.12.2021 16:00 3,4 C 2,9 C 0,1 C 88 % 1008,4 hPa 0,0 l/m 0,00 h 0,00 h 6 W/m 8,3 km/h (2 Bft) 99,10 %
23.12.2021 17:00 4,9 C 4,3 C 1,4 C 92 % 1008,3 hPa 0,0 l/m 0,00 h 0,00 h 0 W/m 13,4 km/h (3 Bft) 97,68 %
23.12.2021 18:00 5,1 C 4,4 C 1,7 C 93 % 1008,2 hPa 0,0 l/m 0,00 h 0,00 h 0 W/m 11,6 km/h (2 Bft) 96,67 %
23.12.2021 19:00 5,2 C 4,4 C 1,7 C 94 % 1007,8 hPa 0,0 l/m 0,00 h 0,00 h 0 W/m 12,8 km/h (3 Bft) 98,99 %
23.12.2021 20:00 5,6 C 4,9 C 2,3 C 96 % 1007,0 hPa 0,2 l/m 0,00 h 0,10 h 0 W/m 19,8 km/h (4 Bft) 96,47 %
23.12.2021 21:00 6,1 C 5,3 C 3,0 C 98 % 1006,5 hPa 0,8 l/m 0,00 h 0,17 h 0 W/m 15,3 km/h (3 Bft) 97,48 %
23.12.2021 22:00 6,6 C 5,8 C 3,6 C 98 % 1006,2 hPa 1,0 l/m 0,00 h 0,43 h 0 W/m 17,4 km/h (3 Bft) 98,90 %
23.12.2021 23:00 7,1 C 6,2 C 4,3 C 99 % 1006,0 hPa 0,2 l/m 0,00 h 0,07 h 0 W/m 18,5 km/h (3 Bft) 95,73 %
24.12.2021 00:00 7,5 C 6,7 C 4,9 C 99 % 1006,0 hPa 0,2 l/m 0,00 h 0,43 h 0 W/m 20,6 km/h (4 Bft) 98,75 %
24.12.2021 01:00 7,6 C 6,7 C 5,3 C 99 % 1005,7 hPa 0,4 l/m 0,00 h 0,03 h 0 W/m 19,9 km/h (4 Bft) 97,13 %
24.12.2021 02:00 7,8 C 7,0 C 5,6 C 99 % 1005,4 hPa 0,2 l/m 0,00 h 0,00 h 0 W/m 18,8 km/h (3 Bft) 96,02 %
24.12.2021 03:00 8,1 C 7,2 C 6,0 C 99 % 1005,1 hPa 0,0 l/m 0,00 h 0,13 h 0 W/m 19,8 km/h (4 Bft) 98,65 %
24.12.2021 04:00 8,1 C 7,2 C 6,1 C 99 % 1004,8 hPa 0,0 l/m 0,00 h 0,00 h 0 W/m 19,2 km/h (3 Bft) 96,36 %
24.12.2021 05:00 8,2 C 7,4 C 6,1 C 99 % 1004,8 hPa 0,0 l/m 0,00 h 0,00 h 0 W/m 19,3 km/h (3 Bft) 96,21 %
24.12.2021 06:00 8,3 C 7,8 C 6,1 C 98 % 1005,0 hPa 0,0 l/m 0,00 h 0,00 h 0 W/m 15,2 km/h (3 Bft) 99,13 %
24.12.2021 07:00 8,3 C 7,8 C 6,4 C 98 % 1005,1 hPa 0,0 l/m 0,00 h 0,00 h 0 W/m 14,4 km/h (3 Bft) 96,67 %
24.12.2021 08:00 8,4 C 7,8 C 6,4 C 98 % 1005,3 hPa 0,0 l/m 0,00 h 0,00 h 4 W/m 14,6 km/h (3 Bft) 97,08 %
24.12.2021 09:00 8,4 C 7,8 C 6,7 C 97 % 1005,3 hPa 0,0 l/m 0,00 h 0,00 h 12 W/m 15,5 km/h (3 Bft) 97,65 %
24.12.2021 10:00 8,6 C 8,1 C 6,7 C 97 % 1004,9 hPa 0,0 l/m 0,07 h 0,00 h 53 W/m 17,1 km/h (3 Bft) 97,72 %
24.12.2021 11:00 8,8 C 8,4 C 6,7 C 96 % 1004,8 hPa 0,0 l/m 0,00 h 0,00 h 48 W/m 14,9 km/h (3 Bft) 97,25 %
24.12.2021 12:00 8,9 C 8,3 C 6,7 C 95 % 1004,7 hPa 0,0 l/m 0,00 h 0,00 h 39 W/m 16,3 km/h (3 Bft) 97,43 %
24.12.2021 13:00 8,8 C 8,3 C 6,7 C 95 % 1004,6 hPa 0,0 l/m 0,00 h 0,00 h 39 W/m 13,0 km/h (3 Bft) 97,37 %
24.12.2021 14:00 9,1 C 8,7 C 7,2 C 94 % 1004,4 hPa 0,0 l/m 0,00 h 0,00 h 58 W/m 12,5 km/h (3 Bft) 97,99 %
24.12.2021 15:00 8,9 C 8,2 C 6,8 C 94 % 1004,3 hPa 0,0 l/m 0,00 h 0,00 h 27 W/m 12,6 km/h (3 Bft) 97,65 %
24.12.2021 16:00 8,1 C 7,2 C 5,8 C 94 % 1004,4 hPa 0,0 l/m 0,00 h 0,00 h 10 W/m 7,3 km/h (2 Bft) 97,02 %
24.12.2021 17:00 8,0 C 7,2 C 5,8 C 96 % 1004,7 hPa 0,0 l/m 0,00 h 0,00 h 0 W/m 10,4 km/h (2 Bft) 98,01 %
24.12.2021 18:00 7,9 C 7,0 C 5,8 C 96 % 1004,5 hPa 0,0 l/m 0,00 h 0,00 h 0 W/m 6,9 km/h (2 Bft) 95,86 %
24.12.2021 19:00 7,6 C 6,8 C 5,6 C 96 % 1004,5 hPa 0,0 l/m 0,00 h 0,00 h 0 W/m 6,1 km/h (2 Bft) 97,23 %
24.12.2021 20:00 7,6 C 7,2 C 5,6 C 96 % 1004,7 hPa 0,0 l/m 0,00 h 0,00 h 0 W/m 5,3 km/h (1 Bft) 97,16 %
24.12.2021 21:00 7,4 C 6,5 C 5,3 C 97 % 1004,8 hPa 0,6 l/m 0,00 h 0,40 h 0 W/m 8,9 km/h (2 Bft) 98,75 %
24.12.2021 22:00 6,4 C 5,7 C 4,5 C 97 % 1005,0 hPa 0,0 l/m 0,00 h 0,00 h 0 W/m 6,0 km/h (2 Bft) 96,51 %
24.12.2021 23:00 5,8 C 5,1 C 4,2 C 97 % 1005,1 hPa 0,2 l/m 0,00 h 0,50 h 0 W/m 5,3 km/h (1 Bft) 96,79 %
25.12.2021 00:00 5,3 C 4,4 C 3,9 C 98 % 1005,2 hPa 0,0 l/m 0,00 h 0,00 h 0 W/m 6,9 km/h (2 Bft) 97,70 %
25.12.2021 01:00 4,8 C 4,2 C 3,3 C 98 % 1005,2 hPa 0,0 l/m 0,00 h 0,00 h 0 W/m 9,2 km/h (2 Bft) 93,99 %
25.12.2021 02:00 4,4 C 3,9 C 3,2 C 98 % 1005,2 hPa 0,0 l/m 0,00 h 0,00 h 0 W/m 11,9 km/h (2 Bft) 98,73 %
25.12.2021 03:00 3,9 C 3,4 C 2,7 C 98 % 1005,2 hPa 0,0 l/m 0,00 h 0,00 h 0 W/m 14,1 km/h (3 Bft) 97,51 %
25.12.2021 04:00 3,2 C 2,7 C 2,1 C 98 % 1005,2 hPa 0,0 l/m 0,00 h 0,20 h 0 W/m 16,2 km/h (3 Bft) 98,43 %
25.12.2021 05:00 2,6 C 2,0 C 1,5 C 97 % 1005,5 hPa 1,0 l/m 0,00 h 0,97 h 0 W/m 15,1 km/h (3 Bft) 96,29 %
25.12.2021 06:00 2,1 C 1,5 C 1,0 C 97 % 1005,8 hPa 1,4 l/m 0,00 h 1,00 h 0 W/m 17,4 km/h (3 Bft) 97,84 %
25.12.2021 07:00 1,4 C 0,8 C 0,4 C 97 % 1006,3 hPa 0,8 l/m 0,00 h 1,00 h 0 W/m 17,7 km/h (3 Bft) 98,72 %
25.12.2021 08:00 0,7 C 0,1 C -0,4 C 97 % 1006,9 hPa 0,0 l/m 0,00 h 0,57 h 7 W/m 15,8 km/h (3 Bft) 93,57 %
25.12.2021 09:00 0,3 C 0,0 C -0,6 C 98 % 1007,4 hPa 0,2 l/m 0,00 h 0,13 h 25 W/m 18,3 km/h (3 Bft) 97,51 %
25.12.2021 10:00 0,3 C 0,0 C -0,6 C 98 % 1008,0 hPa 0,4 l/m 0,00 h 0,03 h 45 W/m 17,5 km/h (3 Bft) 95,63 %
25.12.2021 11:00 0,3 C 0,3 C -0,6 C 98 % 1008,2 hPa 0,2 l/m 0,00 h 0,03 h 58 W/m 16,5 km/h (3 Bft) 96,53 %
25.12.2021 12:00 0,4 C 0,6 C -0,6 C 97 % 1008,4 hPa 0,2 l/m 0,00 h 0,00 h 68 W/m 16,7 km/h (3 Bft) 96,73 %
25.12.2021 13:00 0,4 C 0,9 C -0,6 C 95 % 1008,3 hPa 0,2 l/m 0,00 h 0,00 h 78 W/m 19,0 km/h (3 Bft) 99,08 %
25.12.2021 14:00 0,6 C 0,7 C -0,6 C 94 % 1008,5 hPa 0,0 l/m 0,00 h 0,00 h 64 W/m 16,7 km/h (3 Bft) 98,08 %
25.12.2021 15:00 0,6 C 1,0 C -0,6 C 92 % 1008,6 hPa 0,0 l/m 0,17 h 0,00 h 53 W/m 12,6 km/h (3 Bft) 95,31 %
25.12.2021 16:00 0,2 C -0,3 C -1,3 C 90 % 1008,9 hPa 0,0 l/m 0,00 h 0,00 h 12 W/m 11,3 km/h (2 Bft) 95,94 %
25.12.2021 17:00 -0,4 C -1,0 C -1,9 C 88 % 1009,3 hPa 0,0 l/m 0,00 h 0,00 h 0 W/m 10,1 km/h (2 Bft) 96,77 %
25.12.2021 18:00 -0,9 C -1,6 C -2,2 C 87 % 1009,4 hPa 0,0 l/m 0,00 h 0,00 h 0 W/m 11,5 km/h (2 Bft) 98,43 %
25.12.2021 19:00 -1,0 C -1,7 C -2,5 C 86 % 1009,4 hPa 0,0 l/m 0,00 h 0,00 h 0 W/m 14,4 km/h (3 Bft) 95,69 %
25.12.2021 20:00 -1,2 C -1,7 C -2,8 C 85 % 1009,4 hPa 0,0 l/m 0,00 h 0,00 h 0 W/m 12,3 km/h (3 Bft) 96,04 %
25.12.2021 21:00 -1,4 C -1,8 C -3,3 C 85 % 1009,3 hPa 0,0 l/m 0,00 h 0,00 h 0 W/m 11,6 km/h (2 Bft) 96,29 %
25.12.2021 22:00 -1,6 C -1,8 C -3,3 C 84 % 1009,1 hPa 0,0 l/m 0,00 h 0,00 h 0 W/m 12,9 km/h (3 Bft) 96,88 %
25.12.2021 23:00 -1,6 C -2,1 C -3,5 C 85 % 1009,0 hPa 0,0 l/m 0,00 h 0,00 h 0 W/m 10,2 km/h (2 Bft) 98,03 %
26.12.2021 00:00 -1,5 C -1,7 C -3,3 C 86 % 1008,8 hPa 0,0 l/m 0,00 h 0,00 h 0 W/m 8,0 km/h (2 Bft) 96,12 %
26.12.2021 01:00 -1,3 C -1,7 C -3,3 C 87 % 1008,4 hPa 0,0 l/m 0,00 h 0,00 h 0 W/m 8,1 km/h (2 Bft) 97,00 %
26.12.2021 02:00 -1,4 C -1,9 C -3,6 C 89 % 1008,2 hPa 0,0 l/m 0,00 h 0,00 h 0 W/m 6,7 km/h (2 Bft) 97,03 %
26.12.2021 03:00 -1,3 C -1,7 C -3,3 C 90 % 1008,0 hPa 0,0 l/m 0,00 h 0,00 h 0 W/m 6,1 km/h (2 Bft) 97,64 %
26.12.2021 04:00 -1,2 C -1,7 C -3,3 C 90 % 1008,0 hPa 0,0 l/m 0,00 h 0,00 h 0 W/m 7,0 km/h (2 Bft) 95,61 %
26.12.2021 05:00 -1,0 C -1,4 C -3,3 C 91 % 1007,7 hPa 0,0 l/m 0,00 h 0,00 h 0 W/m 6,2 km/h (2 Bft) 98,72 %
26.12.2021 06:00 -1,2 C -1,8 C -3,5 C 91 % 1007,5 hPa 0,0 l/m 0,00 h 0,00 h 0 W/m 7,3 km/h (2 Bft) 95,49 %
26.12.2021 07:00 -1,2 C -1,7 C -3,3 C 92 % 1007,3 hPa 0,0 l/m 0,00 h 0,00 h 0 W/m 6,4 km/h (2 Bft) 94,58 %
26.12.2021 08:00 -1,1 C -1,5 C -3,2 C 93 % 1007,4 hPa 0,0 l/m 0,00 h 0,00 h 5 W/m 5,4 km/h (1 Bft) 98,09 %
26.12.2021 09:00 -0,1 C -0,0 C -1,9 C 94 % 1007,3 hPa 0,0 l/m 0,00 h 0,00 h 16 W/m 6,7 km/h (2 Bft) 98,00 %
26.12.2021 10:00 1,5 C 1,6 C -0,7 C 93 % 1007,3 hPa 0,2 l/m 0,00 h 0,00 h 49 W/m 12,7 km/h (3 Bft) 96,24 %
26.12.2021 11:00 2,4 C 2,5 C 0,0 C 90 % 1007,0 hPa 0,0 l/m 0,13 h 0,00 h 87 W/m 15,4 km/h (3 Bft) 99,50 %
26.12.2021 12:00 3,0 C 3,0 C 0,6 C 90 % 1006,5 hPa 0,0 l/m 0,00 h 0,00 h 107 W/m 15,5 km/h (3 Bft) 96,06 %
26.12.2021 13:00 3,2 C 3,0 C 0,7 C 92 % 1006,2 hPa 0,0 l/m 0,00 h 0,00 h 74 W/m 14,7 km/h (3 Bft) 98,08 %
26.12.2021 14:00 3,6 C 3,3 C 1,1 C 92 % 1005,8 hPa 0,0 l/m 0,00 h 0,00 h 50 W/m 14,8 km/h (3 Bft) 97,83 %
26.12.2021 15:00 3,6 C 3,3 C 1,0 C 91 % 1005,5 hPa 0,0 l/m 0,00 h 0,00 h 18 W/m 15,2 km/h (3 Bft) 94,65 %
26.12.2021 16:00 3,6 C 2,9 C 0,6 C 91 % 1005,3 hPa 0,0 l/m 0,00 h 0,00 h 7 W/m 16,0 km/h (3 Bft) 97,08 %
26.12.2021 17:00 3,5 C 2,8 C 0,6 C 91 % 1005,2 hPa 0,0 l/m 0,00 h 0,00 h 0 W/m 14,0 km/h (3 Bft) 98,22 %
26.12.2021 18:00 3,5 C 2,8 C 0,6 C 92 % 1005,0 hPa 0,0 l/m 0,00 h 0,00 h 0 W/m 15,8 km/h (3 Bft) 94,97 %
26.12.2021 19:00 3,4 C 2,8 C 0,6 C 92 % 1004,8 hPa 0,0 l/m 0,00 h 0,00 h 0 W/m 15,2 km/h (3 Bft) 98,15 %
26.12.2021 20:00 3,3 C 2,8 C 0,6 C 93 % 1004,5 hPa 0,0 l/m 0,00 h 0,00 h 0 W/m 14,7 km/h (3 Bft) 96,87 %
26.12.2021 21:00 3,3 C 2,8 C 0,6 C 93 % 1004,3 hPa 0,0 l/m 0,00 h 0,00 h 0 W/m 13,1 km/h (3 Bft) 97,01 %
26.12.2021 22:00 3,4 C 2,8 C 0,8 C 94 % 1004,0 hPa 0,0 l/m 0,00 h 0,00 h 0 W/m 14,6 km/h (3 Bft) 96,15 %
26.12.2021 23:00 3,4 C 2,8 C 0,9 C 93 % 1003,8 hPa 0,0 l/m 0,00 h 0,07 h 0 W/m 15,9 km/h (3 Bft) 98,86 %
Min-Datum _ 21.12.21 21.12.21 21.12.21 20.12.21 26.12.21 - - - - 20.12.21 26.12.21
_ Min-Zeit 07:22 05:26 05:32 14:36 23:18 - - - - 01:50 15:30
Minimum _ -4,9 C -5,0 C -5,6 C 71 % 1003,7 hPa - - - - 0,0 km/h (0 Bft) 31,03 %
Max-Datum _ 24.12.21 20.12.21 24.12.21 20.12.21 20.12.21 25.12.21 20.12.21 25.12.21 21.12.21 24.12.21 20.12.21
_ Max-Zeit 14:28 12:58 11:10 00:00 11:50 06:00 10:28 06:08 12:48 10:02 00:28
Maximum _ 9,2 C 10,0 C 7,2 C 99 % 1028,8 hPa 1,4 l/m 0,03 h 0,07 h 288 W/m 41,8 km/h
SO (6 Bft)
100,00 %
Durchschnitt _ 1,9 C 1,3 C -0,1 C 92 % 1015,6 hPa #8,6 l/m #10:42 h #6:16 h 67 W/m 9,9 km/h (2 Bft) 97,16 %
© 2021 W. Hausmann